Volver al catálogo

HULIANWANG DIGUI-132

ActivoComunicacionesLEO
NORAD 67240·PAYLOAD·🇨🇳 China

Lanzado Dec 25, 2025 desde Wenchang Space Launch Site

Loading…

Próximos Pases (próximas 24 horas)

TLE

ActualizadoSource: Space-Track

Época: Sep 14, 2026, 02:10 UTC

1 67240U 25311E   26257.09078088 -.00000073  00000-0  11097-3 0  9995
2 67240  50.0053 157.0362 0000238 306.4302  53.6548 13.29327300 35165

Sigue HULIANWANG DIGUI-132 en tiempo real con AllMySat

Download on the App Store